Location: Tr�vern
(48.0333°N, 4.6000°W)
Time: 08:40:09
(UTC+00:00)

Cosmos 972 Rocket - Pass Details

Date: 14 July 2020
Orbit: 713 x 1151 km, 75.8° (Epoch: 04 August)

Event Time Altitude Azimuth Distance (km) Brightness Sun altitude
Rises 00:33:55 0° 339° (NNW) 3,664 8.7 -20.3°
Reaches altitude 10° 00:36:35 10° 339° (NNW) 2,646 7.7 -20.3°
Maximum altitude 00:42:37 86° 252° (WSW) 860 4.1 -20.2°
Enters shadow 00:44:49 38° 166° (SSE) 1,233 4.6 -20.2°
